Wind_Speed
15 14 14 14 14 15 16 16 17 16 14 13 12 12 11 11 12 12 12 13 14 16 16 18 20 21 22 22 21 21 21 21 22 23 23 23 23 23 24 24 23 21 20
15 16 16 16 16 16 16 16 17 16 14 12 11 11 11 11 12 13 13 14 15 16 17 18 20 21 21 21 22 23 22 23 23 24 25 25 26 27 28 28 26 23 21
17 17 18 19 18 16 16 16 16 15 13 12 10 10 10 10 11 12 13 14 15 16 17 18 19 19 19 20 21 22 22 23 24 25 26 28 29 31 31 30 29 27 25
18 18 19 20 19 17 17 16 15 14 13 11 10 9 9 10 10 11 12 13 15 16 17 18 18 18 19 19 21 22 23 24 25 27 28 30 31 33 33 33 32 31 30
19 19 20 21 20 18 17 16 15 13 12 11 10 9 10 11 11 11 11 12 13 15 17 19 20 20 21 22 23 24 25 26 28 29 31 32 32 33 34 34 34 33 33
19 19 21 21 21 18 17 17 16 14 12 11 10 10 10 11 12 12 13 14 14 15 16 18 20 22 24 25 26 26 27 28 28 29 30 31 32 33 33 33 33 33 33
20 20 21 21 20 18 16 16 16 15 13 12 10 9 10 10 11 12 13 15 16 18 20 22 23 25 26 26 27 28 29 30 30 30 30 30 31 32 32 32 33 32 31
20 20 20 20 19 18 17 18 17 17 15 13 11 10 9 8 8 10 11 13 14 17 19 21 24 26 28 28 29 30 31 32 33 33 33 34 34 34 35 35 35 35 34
19 18 18 18 19 19 19 19 19 19 18 16 13 12 11 9 8 9 11 12 13 15 17 19 21 23 24 25 26 27 29 31 32 33 34 35 36 37 37 37 37 37 37
19 18 18 18 18 20 20 20 21 21 20 18 16 15 15 13 11 13 15 16 18 20 21 23 25 25 26 26 27 28 29 31 32 33 34 35 36 37 37 38 38 39 39
19 19 20 19 18 19 20 21 22 23 22 21 19 18 18 16 15 16 19 21 24 27 28 29 30 30 30 30 31 31 32 33 34 35 36 37 38 38 39 39 39 40 40
22 21 21 21 20 20 21 22 23 24 24 24 23 21 21 20 19 20 23 26 29 30 32 33 34 34 34 34 34 33 33 33 34 35 35 36 37 39 40 40 40 40 40
25 23 23 24 23 22 22 22 22 23 25 26 26 24 23 23 23 24 25 27 29 31 32 33 32 31 31 33 34 34 34 34 35 35 34 34 35 36 37 37 37 37 37
27 26 26 26 26 25 24 23 21 22 24 26 27 26 25 25 25 25 27 29 31 33 32 30 27 26 28 29 31 33 34 35 36 36 36 35 35 35 35 36 37 37 38
27 27 28 28 29 28 26 24 22 21 22 24 25 26 25 26 26 26 29 30 32 32 30 26 25 26 27 29 31 33 35 37 38 38 37 36 36 36 36 37 38 39 40
27 28 30 30 30 30 28 25 23 21 20 21 22 24 25 26 27 28 29 31 32 31 28 25 26 28 31 33 35 37 39 40 40 39 38 37 38 38 39 39 40 41 42
28 29 30 30 31 30 28 26 23 22 21 21 21 22 23 25 26 28 30 31 32 30 28 27 29 31 35 38 40 42 44 44 43 40 38 38 39 39 40 41 42 43 44
30 30 31 30 31 30 28 26 24 23 23 22 21 22 22 23 24 27 29 31 32 31 30 30 32 35 38 41 43 44 44 43 41 39 38 38 39 40 42 43 45 46 47
33 32 31 31 32 31 28 26 25 25 25 23 22 22 22 22 24 28 31 32 32 31 31 32 35 38 40 41 42 41 40 39 38 38 39 40 41 43 45 46 48 49 51
35 33 32 31 32 30 29 27 27 27 27 24 23 23 23 24 26 30 32 32 30 30 32 35 38 39 40 40 40 39 37 38 39 40 42 44 45 47 48 50 52 54 56
35 34 33 32 32 31 29 28 28 28 27 25 24 24 25 26 28 30 31 30 31 32 35 38 40 41 40 39 38 39 40 40 42 43 45 47 50 52 54 56 58 59 61
35 35 34 34 33 31 30 29 28 27 27 26 26 26 27 28 30 32 32 32 34 36 38 40 42 42 41 40 39 40 41 43 45 48 50 52 55 58 60 61 62 64 65
35 36 36 35 34 33 32 30 28 28 28 28 29 29 30 32 33 35 35 36 37 39 41 42 43 43 43 42 42 43 44 44 45 47 52 56 59 61 63 64 65 65 65
36 37 38 36 35 34 32 31 30 30 30 31 32 33 34 36 37 38 39 40 41 43 43 43 43 43 43 44 45 47 50 52 53 52 53 57 60 61 61 62 63 63 65
38 38 39 38 35 33 33 32 32 31 31 32 33 35 37 39 40 41 42 43 44 44 44 44 43 43 44 47 49 52 54 57 60 62 60 60 61 61 61 62 63 65 67
39 38 39 38 36 34 33 33 33 32 32 34 35 37 39 40 42 43 44 45 44 44 44 44 43 45 48 51 54 57 60 62 64 66 66 65 65 64 64 65 67 70 74
Wind_Direction
266 265 270 278 285 292 298 303 303 304 304 305 311 316 314 309 302 293 283 278 273 270 267 266 265 263 262 263 263 263 264 266 267 269 271 275 280 283 284 285 282 276 273
269 270 272 276 281 287 293 297 299 300 297 299 308 311 305 300 297 292 285 278 275 274 272 271 271 270 269 269 270 269 270 270 271 272 273 275 278 280 281 282 283 278 270
270 270 273 276 279 284 289 291 294 295 293 299 307 305 298 293 296 294 286 278 275 274 273 273 274 274 274 274 275 275 274 273 273 273 274 275 276 277 277 278 280 278 271
271 272 274 276 279 282 285 285 288 288 288 295 300 298 292 288 290 295 292 283 276 274 273 272 273 273 273 275 276 277 277 277 277 277 277 277 278 277 276 276 277 276 271
267 271 275 277 279 280 280 279 282 281 281 286 291 294 293 289 285 283 288 289 285 281 275 272 272 273 274 276 278 279 280 280 280 280 281 282 282 281 278 277 277 275 270
261 267 272 274 277 278 277 274 276 274 276 280 284 287 288 290 288 282 278 278 279 281 282 281 279 278 277 277 278 279 280 281 281 282 283 282 282 281 280 279 278 276 271
252 258 265 269 273 276 275 271 271 269 271 275 279 283 285 288 290 288 283 280 279 281 281 282 283 282 281 280 280 281 282 282 282 283 284 284 284 283 282 280 278 278 276
245 250 257 265 269 271 271 268 267 265 266 268 270 274 277 280 287 289 288 290 292 291 290 289 288 286 284 283 283 283 283 283 283 284 284 284 284 284 283 281 279 277 276
241 245 251 260 265 266 266 265 265 263 262 263 264 264 264 265 275 282 285 294 300 300 297 295 294 293 293 293 292 290 289 288 288 287 286 285 284 283 283 282 281 279 279
238 241 248 257 265 267 266 265 265 262 260 262 262 261 261 265 273 280 285 291 296 297 297 297 295 294 293 292 292 291 291 291 291 290 289 287 286 284 283 282 281 281 280
240 241 246 254 264 271 270 267 265 262 260 261 260 260 262 267 273 279 286 292 296 298 297 296 294 293 291 291 292 292 293 293 293 292 290 287 285 284 283 282 281 280 279
240 242 247 253 261 268 271 269 265 263 262 262 259 260 263 267 274 280 288 294 298 300 300 298 296 293 290 290 292 294 297 298 298 296 293 290 287 284 283 282 282 282 281
238 242 246 252 258 263 268 270 267 264 263 263 260 259 264 268 274 281 286 292 296 300 302 303 302 297 292 290 291 294 298 302 303 301 298 295 292 289 287 286 286 285 285
240 242 246 250 255 259 265 270 269 265 262 262 261 259 263 268 274 280 284 290 295 301 303 304 304 301 297 295 296 298 301 303 303 302 299 297 294 293 292 291 290 290 290
245 244 244 246 250 255 261 265 266 263 259 260 262 263 265 268 274 280 284 288 295 299 300 301 303 302 301 300 301 302 303 301 300 299 297 294 292 291 290 289 289 289 289
246 245 244 244 247 251 257 262 263 261 259 260 263 266 267 270 274 279 283 288 293 294 293 294 298 300 301 302 301 302 301 300 298 296 294 291 289 288 287 287 286 286 285
246 247 246 247 249 251 256 261 262 258 255 257 260 265 267 269 274 278 282 287 289 288 286 289 295 298 299 299 299 299 299 298 297 295 292 290 288 288 287 287 286 285 284
244 246 247 248 250 252 256 261 260 255 252 253 257 262 265 268 272 278 282 286 287 285 284 288 292 294 296 298 298 298 298 297 296 294 291 290 289 288 287 287 286 286 286
245 245 245 246 248 251 254 259 258 253 250 250 255 260 263 268 273 278 281 285 286 284 285 287 290 294 297 299 300 299 298 297 295 293 291 290 289 288 288 288 288 288 288
246 246 244 244 246 248 251 256 256 252 249 249 254 260 265 270 275 279 281 283 284 285 287 289 292 295 298 299 299 298 297 295 294 293 293 292 291 291 291 291 291 290 290
244 245 244 244 244 246 249 253 256 253 249 249 254 260 265 270 276 281 282 281 283 286 289 292 295 297 298 298 297 296 295 294 294 294 295 295 295 295 294 293 292 292 291
241 243 244 244 244 245 248 252 256 253 248 249 255 260 265 271 276 281 283 283 286 290 293 295 297 298 298 297 295 293 293 296 298 299 298 297 297 297 296 295 294 294 293
239 241 243 244 244 245 248 252 254 250 249 252 257 261 267 272 277 280 283 286 290 294 296 297 298 298 297 296 294 294 294 294 294 295 297 298 298 298 297 296 295 294 293
239 239 242 243 244 245 248 250 251 251 253 255 258 263 268 272 277 280 283 287 291 294 296 297 297 297 297 297 298 298 298 298 297 295 294 295 295 295 294 293 292 290 289
239 239 240 243 244 245 247 248 250 252 254 257 260 264 268 273 277 280 284 288 292 295 296 297 297 298 298 299 300 300 300 299 299 298 298 297 297 296 294 292 290 288 288
238 238 240 242 245 247 247 248 249 252 256 259 262 266 270 274 277 280 284 289 293 295 296 297 298 299 300 301 301 300 300 299 300 300 300 299 297 296 293 291 289 289 288
Height
5849 5849 5850 5850 5850 5850 5850 5850 5850 5849 5849 5849 5848 5848 5848 5848 5848 5848 5848 5849 5849 5850 5850 5851 5851 5851 5850 5850 5849 5850 5850 5850 5850 5850 5850 5850 5850 5850 5850 5850 5849 5848 5848
5846 5847 5847 5847 5848 5848 5848 5847 5847 5847 5846 5846 5846 5846 5846 5846 5846 5846 5846 5847 5847 5848 5848 5849 5849 5849 5848 5848 5848 5848 5848 5847 5847 5847 5846 5846 5846 5846 5847 5847 5846 5845 5845
5843 5843 5844 5844 5844 5845 5845 5845 5844 5844 5844 5844 5843 5843 5843 5843 5844 5844 5844 5844 5845 5845 5846 5846 5846 5846 5846 5846 5845 5845 5845 5844 5843 5843 5843 5842 5842 5842 5842 5842 5842 5842 5841
5839 5840 5840 5840 5841 5841 5842 5841 5841 5841 5841 5841 5841 5840 5840 5840 5841 5842 5842 5842 5842 5842 5842 5843 5843 5842 5842 5842 5842 5841 5841 5840 5839 5839 5838 5838 5837 5837 5837 5837 5837 5837 5836
5835 5836 5836 5837 5837 5838 5838 5838 5838 5838 5839 5839 5839 5838 5837 5837 5838 5839 5839 5839 5839 5838 5838 5838 5838 5838 5838 5837 5837 5837 5836 5835 5834 5834 5834 5833 5832 5832 5832 5831 5832 5831 5831
5831 5832 5832 5833 5834 5834 5835 5835 5835 5835 5836 5836 5836 5836 5835 5835 5835 5836 5836 5836 5835 5835 5834 5834 5834 5834 5833 5833 5832 5831 5831 5830 5829 5829 5828 5828 5827 5826 5826 5825 5825 5825 5825
5828 5829 5829 5829 5830 5831 5832 5832 5832 5832 5833 5834 5834 5834 5833 5833 5832 5832 5832 5832 5832 5832 5832 5831 5831 5830 5829 5828 5827 5826 5826 5825 5824 5823 5823 5822 5821 5821 5820 5819 5819 5819 5818
5824 5825 5826 5826 5826 5827 5828 5828 5829 5829 5830 5831 5831 5831 5831 5830 5830 5830 5829 5829 5829 5828 5828 5828 5827 5826 5825 5824 5822 5822 5821 5820 5819 5818 5817 5817 5816 5815 5814 5813 5813 5812 5811
5820 5821 5822 5822 5823 5823 5824 5825 5825 5826 5827 5827 5828 5828 5829 5828 5827 5827 5826 5826 5825 5825 5824 5823 5823 5822 5820 5819 5818 5816 5815 5814 5813 5812 5811 5810 5810 5808 5807 5807 5806 5805 5804
5817 5818 5818 5819 5819 5819 5820 5821 5822 5823 5823 5824 5824 5825 5826 5825 5825 5824 5823 5822 5822 5821 5821 5820 5819 5818 5816 5814 5813 5811 5810 5808 5807 5806 5805 5803 5802 5801 5800 5800 5799 5798 5797
5813 5814 5814 5814 5815 5815 5815 5816 5818 5819 5819 5820 5820 5821 5822 5822 5822 5821 5820 5819 5818 5817 5816 5815 5814 5813 5811 5809 5808 5806 5804 5803 5801 5799 5797 5796 5795 5793 5792 5791 5791 5790 5789
5808 5809 5810 5810 5811 5811 5811 5811 5813 5814 5815 5815 5816 5817 5817 5818 5817 5816 5815 5814 5814 5813 5811 5809 5808 5806 5805 5803 5802 5800 5799 5797 5794 5792 5790 5788 5786 5785 5783 5783 5782 5781 5780
5802 5804 5805 5805 5806 5806 5806 5807 5808 5809 5810 5811 5811 5812 5812 5812 5812 5811 5811 5810 5809 5808 5806 5804 5801 5800 5798 5797 5796 5794 5792 5790 5787 5784 5782 5780 5778 5776 5775 5774 5773 5772 5771
5797 5798 5799 5800 5800 5801 5801 5802 5802 5803 5804 5805 5806 5806 5807 5807 5807 5806 5806 5805 5804 5802 5800 5798 5795 5794 5793 5791 5789 5787 5785 5783 5780 5777 5774 5772 5770 5768 5767 5765 5764 5763 5762
5792 5792 5793 5794 5795 5795 5796 5796 5797 5798 5798 5799 5799 5800 5801 5801 5801 5801 5800 5800 5798 5797 5795 5792 5790 5789 5787 5785 5782 5780 5779 5776 5773 5770 5767 5765 5763 5761 5759 5758 5756 5754 5753
5786 5786 5786 5787 5788 5789 5790 5791 5791 5792 5793 5793 5793 5794 5795 5795 5795 5795 5795 5794 5792 5791 5789 5787 5785 5783 5781 5778 5775 5773 5771 5767 5764 5762 5759 5757 5755 5753 5752 5750 5748 5746 5744
5779 5779 5780 5781 5782 5783 5784 5785 5785 5786 5786 5787 5788 5788 5789 5789 5789 5790 5789 5788 5786 5785 5783 5781 5779 5777 5775 5771 5767 5765 5762 5758 5756 5753 5751 5749 5747 5745 5743 5741 5739 5737 5735
5772 5773 5774 5775 5776 5777 5778 5779 5779 5780 5780 5781 5782 5783 5783 5783 5784 5784 5783 5781 5780 5779 5777 5775 5773 5771 5768 5764 5760 5756 5753 5750 5747 5744 5742 5740 5738 5736 5733 5731 5729 5726 5724
5765 5766 5767 5769 5770 5770 5772 5773 5773 5774 5774 5776 5777 5777 5777 5778 5777 5777 5776 5775 5773 5772 5770 5768 5766 5763 5760 5755 5751 5748 5744 5741 5738 5736 5734 5731 5729 5726 5723 5720 5717 5714 5711
5757 5759 5760 5762 5763 5764 5765 5766 5767 5767 5769 5770 5771 5772 5772 5771 5771 5770 5769 5768 5767 5765 5763 5761 5758 5755 5752 5747 5743 5739 5736 5733 5730 5728 5725 5722 5718 5715 5711 5708 5704 5701 5697
5750 5751 5753 5754 5756 5757 5758 5759 5760 5761 5763 5765 5766 5766 5765 5765 5764 5763 5762 5761 5760 5758 5755 5753 5750 5747 5743 5739 5735 5731 5728 5725 5721 5718 5715 5710 5706 5702 5697 5693 5689 5685 5681
5742 5744 5745 5747 5748 5750 5751 5753 5754 5756 5757 5758 5759 5759 5758 5758 5757 5756 5755 5754 5752 5750 5747 5744 5741 5737 5734 5730 5727 5724 5720 5717 5711 5707 5702 5698 5693 5688 5682 5677 5672 5668 5663
5735 5737 5738 5740 5742 5743 5745 5747 5748 5749 5750 5751 5752 5752 5751 5751 5750 5749 5748 5746 5744 5741 5738 5735 5731 5727 5724 5720 5717 5714 5711 5708 5706 5702 5693 5686 5680 5674 5667 5662 5656 5650 5645
5727 5729 5731 5733 5736 5737 5739 5740 5742 5743 5744 5744 5744 5744 5744 5743 5743 5742 5740 5738 5735 5731 5728 5724 5721 5717 5713 5709 5705 5700 5696 5692 5689 5688 5686 5677 5670 5663 5656 5649 5642 5635 5628
5719 5721 5724 5726 5729 5731 5732 5734 5735 5736 5737 5737 5737 5736 5736 5736 5735 5734 5732 5728 5725 5721 5718 5714 5710 5706 5702 5698 5693 5688 5682 5677 5670 5666 5666 5662 5656 5648 5640 5633 5626 5618 5611
5711 5714 5717 5719 5722 5723 5725 5726 5728 5728 5729 5729 5729 5728 5728 5728 5727 5725 5722 5719 5715 5712 5708 5703 5699 5694 5690 5685 5679 5674 5668 5663 5656 5650 5646 5643 5639 5633 5624 5616 5608 5599 5591